Tracking 31011 objects as of 12-Jul-2025
HD Live streaming from Space Station
objects crossing your sky now

NOAA 17 DEB

Track NOAA 17 DEB now!
10-day predictions


NORAD ID: 48765
Int'l Code: 2002-032DB
Perigee: 658.1 km
Apogee: 673.5 km
Inclination: 98.7 °
Period: 97.9 minutes
Semi major axis: 7036 km
RCS: Unknown
Launch date: June 24, 2002
Source: United States (US)
Launch site: AIR FORCE WESTERN TEST RANGE (AFWTR)

Note: This is SATELLITE DEBRIS
Your satellite tracking list
Your tracking list is empty




NASA's NSSDC Master Catalog

Two Line Element Set (TLE):
1 48765U 02032DA  25193.26227959  .00012051  00000-0  19795-2 0  9991
2 48765  98.7010 189.4684 0010926 301.5325  58.4812 14.70760728223393
Source of the keplerian elements: AFSPC